{"data":{"norad_id":40730,"epoch":"2026-05-24T06:55:23.877984Z","epoch_age_seconds":133141,"freshness":"FRESH","line1":"1 40730U 15033A   26144.28847081 -.00000071  00000+0  00000+0 0  9998","line2":"2 40730  54.0016 268.0716 0115011  30.1269 330.5181  2.00557479 79514","mean_motion":2.00557479,"eccentricity":0.0115011,"inclination_deg":54.0016,"raan_deg":268.0716,"arg_perigee_deg":30.1269,"mean_anomaly_deg":330.5181,"bstar":0,"rev_number":7951,"period_min":717.99865414144,"perigee_km":19877.272145571,"apogee_km":20488.231016894,"semimajor_km":26560.888581233,"source":"CELESTRAK","updated_at":"2026-05-25T13:38:23.764454Z"}}